TimeMDT,TemperatureF,Dew PointF,Humidity,Sea Level PressureIn,VisibilityMPH,Wind Direction,Wind SpeedMPH,Gust SpeedMPH,PrecipitationIn,Events,Conditions,WindDirDegrees,DateUTC
12:10 AM,37.4,33.8,87,29.96,5.0,SW,15.0,-,0.01,Rain,Light Rain,220,2013-05-24 06:10:00
12:30 AM,35.6,32.0,87,29.98,3.0,SW,10.4,-,0.04,,Mostly Cloudy,220,2013-05-24 06:30:00
12:50 AM,33.8,30.2,87,29.99,5.0,SW,10.4,-,0.06,Rain,Light Rain,230,2013-05-24 06:50:00
1:10 AM,33.8,30.2,87,30.00,7.0,SSW,8.1,-,0.01,Rain,Light Rain,200,2013-05-24 07:10:00
1:30 AM,35.6,32.0,87,29.99,6.0,South,5.8,-,0.02,Rain,Light Rain,170,2013-05-24 07:30:00
1:50 AM,35.6,32.0,87,29.98,10.0,ESE,3.5,-,0.02,,Mostly Cloudy,110,2013-05-24 07:50:00
2:10 AM,35.6,32.0,87,29.98,10.0,ENE,8.1,-,N/A,,Overcast,70,2013-05-24 08:10:00
2:30 AM,35.6,32.0,87,29.97,10.0,ESE,6.9,-,N/A,,Overcast,110,2013-05-24 08:30:00
2:50 AM,35.6,32.0,87,29.97,10.0,SE,4.6,-,N/A,,Overcast,130,2013-05-24 08:50:00
3:10 AM,35.6,32.0,87,29.97,10.0,SSE,3.5,-,N/A,,Overcast,160,2013-05-24 09:10:00
3:30 AM,35.6,32.0,87,29.98,10.0,SW,4.6,-,N/A,,Mostly Cloudy,220,2013-05-24 09:30:00
3:50 AM,35.6,32.0,87,29.98,10.0,South,9.2,-,N/A,,Overcast,190,2013-05-24 09:50:00
4:10 AM,33.8,30.2,87,29.99,10.0,SSW,9.2,-,N/A,,Scattered Clouds,200,2013-05-24 10:10:00
4:30 AM,32.0,28.4,87,30.00,10.0,SSW,6.9,-,N/A,,Clear,200,2013-05-24 10:30:00
4:50 AM,32.0,28.4,87,30.00,10.0,SSW,10.4,-,N/A,,Clear,210,2013-05-24 10:50:00
5:10 AM,33.8,30.2,87,30.00,10.0,South,19.6,24.2,N/A,,Clear,190,2013-05-24 11:10:00
5:30 AM,32.0,28.4,87,30.02,10.0,NW,4.6,-,N/A,,Clear,320,2013-05-24 11:30:00
5:50 AM,32.0,28.4,87,30.03,10.0,Calm,Calm,-,N/A,,Clear,0,2013-05-24 11:50:00
6:10 AM,32.0,28.4,87,30.04,10.0,SE,8.1,-,N/A,,Clear,140,2013-05-24 12:10:00
6:30 AM,32.0,28.4,87,30.04,10.0,SSE,6.9,-,N/A,,Clear,150,2013-05-24 12:30:00
6:50 AM,33.8,30.2,87,30.05,10.0,South,9.2,-,N/A,,Clear,170,2013-05-24 12:50:00
7:10 AM,35.6,32.0,87,30.06,10.0,South,6.9,16.1,N/A,,Clear,180,2013-05-24 13:10:00
7:30 AM,35.6,32.0,87,30.06,10.0,South,9.2,-,N/A,,Clear,190,2013-05-24 13:30:00
7:50 AM,35.6,32.0,87,30.06,10.0,SSW,10.4,-,N/A,,Clear,200,2013-05-24 13:50:00
8:10 AM,37.4,32.0,81,30.06,10.0,SSW,13.8,-,N/A,,Clear,210,2013-05-24 14:10:00
8:30 AM,37.4,32.0,81,30.07,10.0,SW,13.8,21.9,N/A,,Clear,220,2013-05-24 14:30:00
8:50 AM,37.4,33.8,87,30.07,10.0,SSW,16.1,21.9,N/A,,Clear,210,2013-05-24 14:50:00
9:10 AM,39.2,33.8,81,30.08,10.0,SW,13.8,19.6,N/A,,Clear,220,2013-05-24 15:10:00
9:30 AM,39.2,35.6,87,30.08,10.0,SSW,12.7,18.4,N/A,,Clear,200,2013-05-24 15:30:00
9:50 AM,39.2,35.6,87,30.08,10.0,SSW,16.1,19.6,N/A,,Clear,200,2013-05-24 15:50:00
10:10 AM,41.0,37.4,87,30.08,10.0,South,11.5,24.2,N/A,,Clear,190,2013-05-24 16:10:00
10:30 AM,42.8,37.4,81,30.07,10.0,South,9.2,-,N/A,,Clear,170,2013-05-24 16:30:00
10:50 AM,44.6,39.2,81,30.07,10.0,SSW,13.8,-,N/A,,Scattered Clouds,200,2013-05-24 16:50:00
11:10 AM,44.6,39.2,81,30.07,10.0,SSW,15.0,20.7,N/A,,Mostly Cloudy,210,2013-05-24 17:10:00
11:30 AM,44.6,41.0,87,30.07,10.0,SSW,15.0,24.2,N/A,,Mostly Cloudy,200,2013-05-24 17:30:00
11:50 AM,46.4,41.0,81,30.07,10.0,SW,15.0,27.6,N/A,,Scattered Clouds,220,2013-05-24 17:50:00
12:10 PM,48.2,42.8,82,30.07,10.0,SSW,16.1,24.2,N/A,,Partly Cloudy,210,2013-05-24 18:10:00
12:30 PM,48.2,44.6,87,30.06,10.0,SSW,13.8,26.5,N/A,,Partly Cloudy,200,2013-05-24 18:30:00
12:50 PM,50.0,44.6,82,30.07,10.0,SSW,16.1,28.8,N/A,,Partly Cloudy,210,2013-05-24 18:50:00
1:10 PM,50.0,44.6,82,30.07,10.0,SW,15.0,29.9,N/A,,Clear,220,2013-05-24 19:10:00
1:30 PM,50.0,46.4,87,30.06,10.0,SW,15.0,20.7,N/A,,Partly Cloudy,230,2013-05-24 19:30:00
1:50 PM,50.0,46.4,87,30.06,10.0,SSW,13.8,28.8,N/A,,Partly Cloudy,210,2013-05-24 19:50:00
2:10 PM,50.0,46.4,87,30.05,10.0,SW,19.6,28.8,N/A,,Mostly Cloudy,230,2013-05-24 20:10:00
2:30 PM,51.8,46.4,82,30.05,10.0,South,18.4,26.5,N/A,,Scattered Clouds,190,2013-05-24 20:30:00
2:50 PM,53.6,48.2,82,30.04,10.0,SSW,15.0,29.9,N/A,,Partly Cloudy,200,2013-05-24 20:50:00
3:10 PM,53.6,48.2,82,30.04,10.0,SW,18.4,35.7,N/A,,Clear,220,2013-05-24 21:10:00
3:30 PM,53.6,48.2,82,30.04,10.0,SW,16.1,32.2,N/A,,Clear,220,2013-05-24 21:30:00
3:50 PM,55.4,50.0,82,30.03,10.0,South,19.6,33.4,N/A,,Clear,190,2013-05-24 21:50:00
4:10 PM,55.4,50.0,82,30.03,10.0,SW,18.4,27.6,N/A,,Clear,220,2013-05-24 22:10:00
4:30 PM,55.4,50.0,82,30.03,10.0,SW,13.8,28.8,N/A,,Clear,220,2013-05-24 22:30:00
4:50 PM,55.4,50.0,82,30.03,10.0,SW,19.6,35.7,N/A,,Clear,220,2013-05-24 22:50:00
5:10 PM,53.6,48.2,82,30.02,10.0,SW,17.3,28.8,N/A,,Clear,220,2013-05-24 23:10:00
5:30 PM,53.6,48.2,82,30.03,10.0,SW,17.3,32.2,N/A,,Clear,230,2013-05-24 23:30:00
5:50 PM,53.6,48.2,82,30.03,10.0,SW,16.1,28.8,N/A,,Clear,220,2013-05-24 23:50:00
6:10 PM,53.6,48.2,82,30.03,10.0,SW,15.0,27.6,N/A,,Clear,220,2013-05-25 00:10:00
6:30 PM,51.8,48.2,88,30.02,10.0,SW,15.0,26.5,N/A,,Clear,220,2013-05-25 00:30:00
6:50 PM,51.8,46.4,82,30.02,10.0,SW,13.8,23.0,N/A,,Clear,220,2013-05-25 00:50:00
7:10 PM,50.0,46.4,87,30.03,10.0,SSW,16.1,25.3,N/A,,Clear,210,2013-05-25 01:10:00
7:30 PM,50.0,46.4,87,30.03,10.0,SW,10.4,21.9,N/A,,Clear,220,2013-05-25 01:30:00
7:50 PM,50.0,44.6,82,30.03,10.0,Calm,Calm,-,N/A,,Clear,0,2013-05-25 01:50:00
8:10 PM,48.2,44.6,87,30.04,10.0,East,5.8,-,N/A,,Clear,100,2013-05-25 02:10:00
8:30 PM,48.2,44.6,87,30.04,10.0,Calm,Calm,-,N/A,,Clear,0,2013-05-25 02:30:00
8:50 PM,46.4,41.0,81,30.04,10.0,South,9.2,-,N/A,,Clear,170,2013-05-25 02:50:00
9:10 PM,46.4,42.8,87,30.04,10.0,Calm,Calm,-,N/A,,Clear,0,2013-05-25 03:10:00
9:30 PM,44.6,39.2,81,30.04,10.0,Calm,Calm,-,N/A,,Clear,0,2013-05-25 03:30:00
9:50 PM,41.0,37.4,87,30.05,10.0,ESE,4.6,-,N/A,,Clear,110,2013-05-25 03:50:00
10:10 PM,42.8,37.4,81,30.05,10.0,NNW,4.6,-,N/A,,Clear,340,2013-05-25 04:10:00
10:30 PM,41.0,37.4,87,30.05,10.0,ENE,5.8,-,N/A,,Clear,70,2013-05-25 04:30:00
10:50 PM,41.0,37.4,87,30.05,10.0,East,6.9,-,N/A,,Clear,100,2013-05-25 04:50:00
11:10 PM,41.0,35.6,81,30.05,10.0,Calm,Calm,-,N/A,,Clear,0,2013-05-25 05:10:00
11:30 PM,39.2,35.6,87,30.05,10.0,Calm,Calm,-,N/A,,Clear,0,2013-05-25 05:30:00
11:50 PM,39.2,35.6,87,30.04,10.0,SSE,4.6,-,N/A,,Clear,150,2013-05-25 05:50:00